Wind_Speed
20 21 21 21 20 19 17 15 14 12 10 8 6 5 6 7 6 4 3 4 5 6 6 5 5 6 7 7 8 8 9 10 14 16 17 16 15 14 13 12 12 10 9 8 6 5 4 3 3 4 6 7 8 9 10 11 10 9 7 8 10 10 9 7 5 4 5 6 6 6 4 4 5 6 6 5 6 8 8 8 9 8 6 5 5 4 4 5
19 20 20 20 20 19 19 18 16 15 13 10 8 5 5 5 6 6 5 4 5 6 7 7 6 6 6 7 8 9 9 9 11 14 16 16 16 15 14 14 12 11 10 9 8 6 5 4 3 3 4 6 6 7 8 8 9 8 6 6 7 8 9 9 8 6 6 7 7 6 3 4 4 4 5 5 6 7 8 8 9 8 6 4 4 4 4 5
17 18 19 20 20 20 20 19 18 17 16 14 11 8 5 5 5 5 6 5 5 6 7 8 7 7 7 7 8 9 9 9 9 11 13 15 16 17 16 15 14 12 11 11 10 8 6 4 3 3 4 5 5 4 6 7 7 7 6 4 5 7 8 9 9 8 7 7 6 5 3 3 3 3 4 4 5 7 7 8 8 7 6 4 4 4 5 5
15 16 18 18 19 20 20 20 19 19 18 16 14 10 7 6 5 5 6 6 5 6 7 8 8 8 8 8 8 8 9 9 9 9 11 13 15 17 17 17 16 14 13 13 12 10 7 4 3 3 4 4 3 3 5 5 6 7 6 5 5 7 8 9 10 9 9 8 7 5 2 3 3 3 4 4 5 6 7 7 7 6 6 5 5 5 5 5
13 14 16 17 18 19 19 19 20 20 19 18 16 13 10 8 6 5 6 7 6 6 6 7 8 9 9 8 8 7 8 9 9 9 10 11 12 14 16 17 17 16 14 14 13 11 8 5 4 4 4 3 2 2 4 5 6 7 5 4 5 7 6 7 7 8 8 9 9 5 2 3 2 2 4 4 4 5 6 7 6 6 5 5 5 5 5 5
11 12 14 15 16 17 18 19 19 19 19 19 17 15 12 10 8 6 6 7 7 7 6 7 8 9 9 9 8 7 8 8 9 10 11 11 12 12 14 15 17 17 16 15 14 12 9 6 6 6 5 4 3 1 3 4 5 6 5 5 5 5 5 6 6 6 5 7 9 7 4 3 2 2 4 4 4 5 6 6 6 5 4 4 6 6 5 5
9 11 12 14 15 16 17 18 18 19 19 19 18 16 14 11 8 7 7 7 8 8 7 7 7 8 8 9 9 8 8 8 10 11 12 12 12 12 13 13 15 17 17 17 16 13 10 8 8 8 7 7 5 3 1 1 5 6 6 6 5 4 6 7 7 6 4 3 6 8 6 2 1 2 4 4 4 5 5 4 4 4 4 4 5 6 5 5
8 9 11 12 14 15 16 17 17 18 19 19 19 17 15 12 9 8 8 8 9 8 8 7 7 7 8 8 8 8 9 9 11 12 13 13 13 13 13 13 13 15 17 17 16 13 11 11 10 9 9 8 7 5 3 3 4 4 5 5 5 5 6 8 8 7 6 2 3 6 6 3 2 1 4 3 3 5 4 3 4 4 4 3 4 6 6 5
7 8 9 11 12 14 15 16 17 17 18 19 18 18 16 14 11 9 8 8 9 9 9 8 8 7 7 8 8 9 9 10 11 13 13 13 13 14 14 14 13 14 15 16 16 15 14 13 12 10 9 8 7 6 6 6 4 3 3 4 6 5 6 7 7 7 6 3 3 5 5 3 3 1 5 4 3 4 3 2 4 5 3 2 3 6 7 6
6 7 9 10 11 13 14 15 16 17 17 18 18 18 17 15 13 10 9 9 9 9 9 9 8 8 8 8 8 9 10 11 13 13 13 12 12 13 14 14 14 14 14 14 15 16 17 15 13 12 11 10 10 9 9 8 6 5 4 5 7 7 6 7 7 7 6 5 4 3 2 2 4 3 4 4 3 3 2 2 4 4 3 2 1 5 8 7
6 7 8 9 11 12 13 15 15 16 17 17 18 17 17 16 15 12 10 9 9 10 10 10 9 8 8 8 9 9 10 12 13 13 13 12 12 12 13 14 14 14 14 13 13 16 19 18 15 14 14 14 12 11 11 9 8 6 6 7 8 7 6 7 7 7 6 6 6 4 3 3 2 5 2 3 2 2 2 2 4 4 3 2 0 4 8 7
7 7 8 9 11 12 13 14 15 16 16 17 17 17 17 17 16 14 12 10 10 10 11 11 10 9 8 8 9 9 10 11 12 13 14 12 12 12 13 14 14 14 14 14 13 15 19 19 19 18 17 16 14 12 12 10 9 8 7 8 8 8 7 7 6 6 6 7 7 7 6 4 1 4 2 1 1 2 1 1 3 3 3 2 1 4 8 7
7 7 8 9 10 12 13 14 15 15 16 17 17 17 17 17 17 16 14 12 10 10 11 11 10 9 8 8 8 8 9 10 12 13 14 13 13 12 13 13 14 14 14 14 14 15 17 18 19 20 20 18 15 14 13 11 11 11 10 9 10 10 9 9 8 7 7 7 7 7 7 3 3 3 2 0 2 2 1 1 1 2 1 1 2 5 6 5
7 8 9 10 11 12 13 14 15 15 16 17 17 17 17 17 17 17 16 14 12 11 10 11 11 10 9 8 7 7 8 10 11 13 13 13 12 12 13 14 14 14 13 13 14 15 17 17 16 18 19 18 17 16 14 12 13 12 11 11 11 12 11 11 10 9 9 8 7 7 6 3 3 2 3 2 2 3 2 1 1 1 0 0 3 5 4 2
8 8 9 10 11 12 13 14 15 15 16 17 17 17 17 17 17 17 16 15 13 11 11 10 11 10 9 8 7 6 7 9 11 12 13 13 12 12 13 14 14 13 13 13 14 15 17 17 15 15 15 16 17 16 14 13 14 14 13 13 13 13 14 13 12 11 10 10 7 7 6 4 3 2 3 3 3 3 3 3 2 1 0 1 3 4 3 4
8 9 9 10 11 12 13 13 15 16 16 17 18 18 18 17 17 17 16 15 14 13 11 10 10 10 9 8 7 6 6 8 9 10 12 13 13 13 14 15 15 15 14 14 15 15 17 18 16 14 13 14 16 16 15 15 16 16 15 15 15 16 16 16 14 12 11 11 8 7 6 3 3 4 3 3 3 4 5 4 3 2 1 1 2 2 4 6
8 9 9 10 11 12 13 13 15 16 17 18 18 18 18 18 17 17 16 16 15 13 11 9 9 10 9 9 8 7 6 7 8 9 11 12 13 13 14 16 16 16 16 15 15 16 17 18 17 14 12 13 14 14 14 15 16 17 17 17 17 17 18 17 15 13 12 11 9 7 6 4 3 4 4 4 4 5 5 5 5 3 2 3 3 1 4 6
9 9 10 10 11 12 12 13 15 16 17 18 18 18 19 18 18 17 16 16 15 14 12 10 10 10 10 9 8 7 6 7 8 9 10 11 12 13 13 14 15 16 16 16 16 17 18 19 19 15 13 12 13 14 14 15 16 16 16 16 16 17 17 16 15 13 11 11 10 7 7 6 4 4 5 5 5 6 5 6 6 4 2 4 3 1 4 7
9 10 10 11 11 12 12 13 15 16 17 18 18 19 19 18 18 18 17 16 15 14 13 11 11 10 10 9 8 7 7 7 7 9 10 10 11 11 12 12 14 15 16 17 18 19 20 20 20 16 11 11 14 16 16 16 16 15 15 15 15 15 15 14 13 12 11 11 9 8 8 8 6 6 6 4 4 6 6 6 7 5 3 4 4 1 3 7
10 10 10 11 11 12 12 13 14 15 17 18 18 19 19 19 19 18 17 16 15 14 13 12 11 10 9 8 8 7 7 7 7 9 10 9 9 9 10 10 12 14 16 18 20 21 21 21 19 13 11 15 17 19 19 16 15 15 15 15 14 15 15 14 12 11 11 10 9 8 8 8 8 9 8 5 4 6 7 7 8 6 4 3 4 2 2 6
11 11 11 11 12 12 12 13 14 15 17 17 18 18 19 19 19 18 18 17 16 15 14 13 11 10 9 8 7 7 7 8 7 9 10 9 8 9 8 9 11 13 15 17 19 20 21 19 15 12 16 20 20 21 19 16 15 15 15 14 14 15 14 13 13 12 11 10 9 8 8 9 10 11 9 7 5 7 9 9 9 9 7 5 4 3 2 4
12 12 12 12 13 13 13 14 14 16 16 16 18 19 19 19 19 19 18 17 16 16 15 13 12 11 9 8 7 7 8 8 8 8 10 10 9 8 8 9 10 11 13 14 16 19 18 15 15 18 23 23 21 20 19 16 15 16 16 15 15 16 15 14 14 13 11 10 9 9 8 8 10 13 9 7 6 7 9 10 10 10 9 7 5 4 2 3
14 14 14 14 14 14 14 14 15 16 16 16 18 19 19 19 19 19 19 18 17 15 14 13 12 12 11 9 8 8 9 9 8 9 10 10 10 8 8 8 8 9 10 10 13 15 15 17 21 25 25 24 21 20 20 17 16 17 17 16 16 16 15 15 15 13 11 11 9 9 7 6 9 16 11 6 8 7 8 10 10 10 11 9 6 4 3 3
16 16 16 15 15 15 15 15 16 16 16 17 18 18 19 19 20 20 19 18 17 16 14 12 12 12 12 10 9 9 9 10 10 9 10 11 10 8 7 7 8 10 10 10 10 11 16 22 25 26 26 25 23 22 21 18 17 19 18 16 15 15 16 16 16 14 12 11 10 9 8 5 7 15 11 6 8 8 8 10 10 11 12 9 8 6 4 4
18 18 18 17 16 16 16 16 16 17 16 17 18 18 18 19 19 20 19 18 17 16 14 13 12 12 12 11 9 9 9 10 11 10 11 12 9 7 7 8 9 10 8 7 8 12 19 22 23 25 26 25 24 22 21 20 19 18 16 14 15 16 17 18 17 15 13 11 11 10 8 5 5 11 11 7 8 9 9 11 10 11 11 10 10 9 7 6
20 20 19 19 19 18 18 17 17 17 17 17 18 18 18 19 19 19 19 18 18 17 15 13 13 12 12 11 10 9 10 11 11 11 12 11 8 6 7 9 9 9 7 6 7 12 15 16 19 22 23 23 23 22 21 21 19 17 15 15 16 18 19 20 18 15 13 11 11 10 9 6 5 9 12 11 11 11 10 10 10 10 11 11 12 11 10 8
22 22 22 21 21 20 19 18 18 19 18 18 19 19 18 18 19 19 19 18 18 17 15 13 12 12 12 12 11 10 11 11 11 11 11 8 7 7 9 10 10 10 9 8 9 12 12 12 15 17 19 20 22 22 21 22 19 15 15 17 18 21 21 21 20 16 13 11 11 10 10 8 8 9 12 13 12 12 11 10 9 10 11 12 12 13 12 10
23 24 24 23 23 22 21 20 19 20 20 19 19 19 19 19 19 19 19 18 17 16 14 13 12 12 12 11 10 9 10 11 11 10 9 7 7 9 10 12 12 12 11 10 10 12 10 10 13 13 15 17 19 20 20 21 18 16 17 18 20 22 22 22 21 17 14 12 11 11 10 10 10 10 10 9 10 10 11 11 10 9 11 13 13 13 14 13
25 25 26 26 25 24 23 22 20 21 22 20 20 20 20 19 19 19 19 17 16 15 14 13 12 12 11 9 9 9 8 9 9 9 8 8 8 9 10 11 11 12 12 12 12 12 10 10 10 10 12 14 15 14 15 17 16 17 19 18 20 22 23 23 21 18 15 13 12 12 10 10 11 12 10 8 9 10 10 12 13 13 13 14 14 14 15 15
28 27 27 29 28 26 26 24 22 23 24 22 21 21 21 21 20 20 19 16 15 15 14 14 13 12 13 11 10 9 7 7 7 7 7 8 9 10 11 11 10 11 12 12 14 15 14 12 9 10 12 13 13 12 14 15 15 17 18 16 18 21 21 21 19 17 15 14 15 14 12 11 11 12 11 9 10 10 8 9 13 16 15 13 12 14 16 16
31 30 29 30 31 29 28 27 24 25 26 24 22 22 23 22 21 20 18 16 16 15 15 15 13 12 13 12 11 10 7 6 6 6 7 9 10 10 11 11 11 12 13 14 16 18 17 13 10 12 15 14 14 14 16 16 15 16 16 15 16 16 17 16 14 15 14 15 17 17 14 12 12 12 11 10 10 10 9 9 11 15 16 13 12 14 16 17
33 33 32 31 32 32 31 29 27 27 27 27 25 24 24 24 22 21 20 18 17 17 17 16 14 13 14 15 13 9 6 5 6 8 10 11 11 11 12 13 13 14 14 15 16 17 15 14 13 16 17 17 17 17 17 17 17 16 15 15 14 13 13 12 12 14 15 16 18 19 17 15 13 14 12 11 11 11 11 11 9 10 12 13 14 15 17 18
36 35 35 33 32 32 32 30 30 29 29 29 27 26 26 25 23 22 21 20 18 18 17 15 13 12 13 14 14 10 6 6 8 10 12 12 12 13 14 15 16 15 15 16 15 15 14 14 15 17 18 16 16 15 15 16 16 15 15 16 15 15 15 13 13 15 16 17 19 20 19 16 15 15 14 13 12 12 11 11 10 10 11 12 13 14 16 18
40 39 37 36 34 33 32 32 32 31 31 30 29 29 28 26 24 24 23 22 21 19 17 14 13 11 11 13 14 11 9 10 11 12 13 13 13 14 15 16 17 15 15 16 14 14 15 14 14 14 15 14 13 13 14 16 16 15 16 16 16 17 17 15 15 17 17 18 20 21 19 17 16 16 15 15 14 13 13 12 12 12 13 14 14 13 14 17
42 41 39 37 36 35 34 34 34 33 33 32 31 31 29 26 26 26 25 24 22 20 16 14 13 12 11 13 14 12 11 12 13 13 14 14 14 16 16 18 18 16 15 14 13 14 14 13 14 13 13 13 13 14 16 16 14 15 16 15 13 15 16 15 16 17 18 18 20 21 20 18 18 18 17 16 16 15 15 14 14 14 14 14 14 13 14 17
41 42 39 36 36 36 36 36 36 35 35 34 33 32 29 27 28 29 28 25 23 21 17 15 14 13 12 14 15 14 13 13 14 14 14 15 16 17 17 17 16 15 15 13 12 13 14 13 14 14 14 15 15 15 17 14 12 14 13 11 11 15 16 16 17 18 18 18 19 19 20 20 20 20 19 18 17 17 16 15 15 16 15 15 14 13 14 17
38 38 36 33 32 33 34 35 36 36 36 36 35 32 29 30 31 31 29 26 24 22 19 17 16 15 14 15 16 16 14 13 14 15 15 16 16 14 12 12 12 12 15 14 12 13 14 14 15 15 16 18 17 16 17 15 13 12 10 9 12 15 16 17 19 20 19 18 18 18 19 21 22 21 20 19 18 18 17 17 16 16 17 16 16 15 13 16
33 33 32 29 28 29 30 32 33 35 36 37 35 32 31 31 31 32 30 27 25 23 21 20 20 19 17 16 18 19 17 15 15 15 16 16 15 12 10 10 12 13 15 15 12 14 14 13 14 15 17 19 19 18 17 16 15 13 10 11 13 14 16 18 20 22 21 20 19 19 18 20 22 22 21 20 19 18 17 17 17 16 17 17 17 16 14 15
30 31 30 28 27 28 29 31 32 33 34 34 33 32 31 30 32 33 31 29 26 25 24 23 22 21 19 17 18 20 19 18 17 16 16 14 14 13 10 10 13 14 14 13 12 13 14 12 12 14 16 19 20 20 19 17 16 14 12 13 13 14 17 19 21 23 23 23 22 20 18 17 19 21 22 22 21 19 18 17 17 16 16 17 17 17 16 15
30 30 30 29 28 28 29 30 30 31 31 31 31 32 32 31 33 34 33 31 28 26 26 26 24 22 20 17 18 20 20 19 19 18 17 16 16 15 12 11 12 12 13 13 14 15 14 12 11 13 16 18 20 22 21 19 19 17 16 15 15 15 17 19 21 23 24 25 25 23 19 15 15 17 19 20 21 21 20 18 18 17 16 16 17 17 17 16
31 31 30 29 28 28 29 29 28 28 28 27 28 30 32 33 34 36 36 33 30 28 28 28 26 24 22 18 18 22 22 20 20 20 19 19 18 16 14 11 11 11 11 13 15 16 14 13 13 13 15 16 19 23 24 23 22 21 19 19 18 17 17 18 20 21 23 24 25 25 21 16 13 13 14 15 17 19 21 21 19 18 16 15 16 16 16 16
32 32 30 30 29 28 28 29 27 27 26 25 25 26 30 32 34 36 37 34 31 29 29 29 28 26 25 22 20 24 26 23 22 22 21 21 19 16 14 12 11 12 12 12 14 15 13 13 14 14 14 15 18 22 25 25 26 25 23 22 22 21 21 20 20 21 22 23 24 25 23 19 16 15 14 15 15 16 19 21 21 19 18 16 16 16 15 14
32 32 30 29 29 28 28 28 27 26 27 26 24 25 27 29 32 34 36 34 31 30 30 31 30 29 28 25 23 25 28 26 24 24 24 22 19 16 15 15 13 14 14 14 14 15 14 13 14 14 13 14 15 19 23 25 27 27 26 25 24 24 24 23 23 22 22 22 23 24 23 21 19 19 18 18 18 16 17 20 22 21 19 18 17 17 16 14
32 32 30 28 28 28 28 27 26 27 28 26 25 26 26 27 30 34 35 34 32 31 32 33 33 32 31 29 26 27 29 28 26 26 26 23 21 19 18 17 16 15 15 15 16 16 15 15 15 14 13 14 15 17 20 22 25 26 27 26 25 25 25 25 25 25 24 22 23 23 22 21 22 22 20 19 18 17 16 19 23 22 20 19 18 18 18 18
31 32 29 27 27 27 27 26 26 27 27 27 26 27 28 28 30 33 34 34 33 33 34 35 35 34 33 31 28 27 30 30 27 27 27 25 23 22 21 20 19 18 18 18 19 18 16 16 17 16 15 15 17 19 20 22 25 27 28 28 27 27 26 25 25 25 24 23 23 23 22 21 22 22 20 18 17 16 16 19 22 23 21 20 19 19 19 19
30 30 29 26 25 26 26 25 25 26 26 26 27 29 30 30 30 31 33 35 36 36 35 35 36 36 35 33 30 28 31 32 30 29 28 26 25 24 23 22 21 21 21 22 22 21 19 19 18 16 16 17 18 19 21 22 24 26 27 26 26 25 24 24 23 23 23 24 24 24 23 22 21 21 20 19 17 18 18 18 20 23 22 20 19 19 18 19
28 29 29 27 25 24 24 24 25 26 25 25 27 29 31 31 30 30 32 36 39 38 36 35 36 38 37 34 32 30 31 33 33 31 29 27 25 24 24 24 24 24 25 24 24 23 22 22 20 18 18 18 18 19 20 21 23 24 25 24 22 21 21 21 22 22 23 23 23 23 23 22 21 20 21 21 20 19 19 18 19 22 22 20 18 18 18 18
26 27 28 27 25 23 23 23 24 25 26 26 27 29 30 30 30 32 33 36 39 39 38 37 38 38 37 35 33 31 30 32 34 33 31 28 26 25 25 25 26 27 27 26 25 25 25 25 24 22 22 21 20 20 20 20 21 23 25 24 22 20 19 19 20 21 22 22 22 23 22 21 19 19 20 22 22 20 19 18 18 19 21 20 18 17 16 17
25 26 27 27 26 24 23 23 23 25 26 27 28 29 29 29 30 33 34 36 38 39 39 40 40 40 38 35 33 32 32 32 34 35 33 31 29 28 27 26 27 27 27 27 28 28 28 27 28 26 25 23 21 20 20 19 19 21 24 26 25 22 19 19 20 20 21 21 22 21 20 19 18 18 18 20 22 22 20 19 19 18 18 18 18 17 16 16
24 25 25 27 27 26 24 23 23 24 26 28 28 28 28 29 30 33 34 35 37 37 38 39 41 40 38 36 33 33 33 31 32 35 37 34 31 30 29 28 28 28 28 29 29 30 29 29 29 29 26 24 21 20 20 19 18 20 22 25 27 25 21 19 19 20 20 21 21 20 19 19 19 19 18 17 20 22 21 19 20 19 18 18 17 16 16 16
24 25 25 27 28 28 27 25 23 24 26 27 28 28 28 29 30 32 34 35 36 37 38 39 40 40 38 37 34 33 33 31 30 34 38 37 34 32 31 30 30 29 30 31 32 33 32 31 32 31 28 25 22 21 20 19 18 19 19 21 23 23 22 19 18 18 19 20 21 22 22 21 21 20 19 17 17 21 22 20 20 20 20 19 17 15 16 16
25 25 26 27 28 29 28 27 25 25 26 27 27 28 28 29 30 32 34 35 35 37 39 40 40 39 38 36 35 34 33 31 30 32 35 37 35 34 33 33 33 32 32 32 33 34 34 34 34 33 29 26 24 22 21 19 18 17 17 17 16 17 19 19 18 18 18 20 21 22 23 22 21 20 20 18 16 19 21 21 20 21 21 20 18 17 17 16
Wind_Direction
39 38 36 35 32 30 27 23 18 12 5 359 356 3 11 14 10 350 308 274 262 265 274 284 285 273 260 253 250 251 249 242 235 229 225 225 225 223 222 226 232 239 251 261 268 272 282 308 336 345 357 10 19 36 37 25 29 42 54 64 62 61 66 80 98 93 64 61 70 69 54 57 68 64 56 51 49 53 61 71 77 74 65 69 79 78 76 81
39 38 36 34 32 30 27 24 21 16 11 3 351 341 339 349 359 359 342 303 274 264 265 272 280 280 271 259 251 249 251 247 240 236 230 228 226 224 223 225 229 233 242 252 257 260 265 283 317 337 358 8 9 26 31 16 5 6 24 55 59 50 51 64 81 89 72 64 72 78 70 62 75 70 57 51 45 48 61 71 76 76 72 73 81 82 79 79
39 37 36 34 31 29 26 24 21 18 15 10 2 349 334 325 330 343 345 330 297 273 265 266 271 276 276 269 260 250 250 249 244 241 236 233 229 226 225 224 225 228 234 242 247 252 257 271 306 328 355 359 353 19 30 11 345 340 355 23 39 33 32 42 49 53 60 61 68 85 91 85 100 90 65 55 46 43 55 70 74 78 82 87 84 79 79 80
38 37 35 33 30 28 25 23 21 18 15 12 8 2 353 339 324 325 333 333 319 292 272 265 265 268 272 273 269 259 254 252 248 244 241 239 234 230 228 225 224 225 231 238 242 246 249 262 287 308 335 341 347 29 44 16 329 315 335 2 24 24 21 27 31 30 37 41 49 70 88 91 116 112 78 60 55 43 47 68 74 79 89 98 92 81 83 86
37 36 34 32 30 27 24 22 20 18 16 13 11 7 3 357 342 328 327 329 325 310 285 271 265 265 267 269 271 268 260 253 247 244 243 243 240 236 233 229 226 224 227 235 240 241 240 250 268 279 296 306 321 38 62 28 322 303 327 358 13 16 14 18 21 22 32 42 48 49 36 57 82 99 83 68 60 47 47 68 75 81 89 95 92 87 95 99
34 34 33 31 28 26 24 21 19 17 16 14 12 9 6 3 354 341 335 330 327 319 301 282 271 267 265 267 268 268 263 254 245 241 241 242 243 241 237 232 228 225 225 231 237 239 236 237 247 257 262 270 270 228 77 28 317 303 325 342 353 -0 359 358 356 5 33 55 55 49 31 32 28 61 87 79 63 53 54 71 75 78 83 83 87 91 103 110
31 31 30 28 26 24 22 19 17 15 14 14 12 10 6 3 357 348 343 334 329 324 313 297 281 272 267 266 266 263 260 253 244 239 235 237 241 243 241 237 231 226 225 228 232 236 237 236 239 245 251 258 260 248 155 337 300 303 313 319 330 342 348 343 335 350 17 46 42 40 33 12 320 63 95 93 73 60 61 77 74 67 67 72 88 99 105 108
24 26 27 25 24 22 19 17 15 13 12 12 11 10 7 4 357 351 346 340 334 327 320 308 291 278 269 266 262 256 252 249 246 243 236 233 236 242 245 244 238 231 227 227 229 232 233 233 235 241 248 254 259 263 249 255 288 300 302 305 313 331 345 340 336 350 3 2 358 11 19 354 264 102 101 112 91 72 70 87 69 60 59 59 92 107 104 102
16 20 21 21 20 18 16 14 12 11 10 9 9 9 7 4 358 350 345 343 338 331 324 314 300 287 274 265 260 255 249 248 250 249 244 238 235 239 245 247 246 240 232 227 224 226 230 231 233 237 243 249 252 259 258 257 267 270 282 293 301 320 336 334 331 342 353 2 336 336 2 354 295 40 98 117 113 82 79 98 73 63 58 45 96 111 107 107
6 11 15 16 15 14 12 11 9 7 6 6 6 6 6 4 359 351 343 340 340 335 328 320 310 295 281 270 262 254 246 247 249 251 252 249 243 240 242 246 246 244 239 232 222 222 228 229 231 234 236 240 241 246 250 251 255 260 268 277 292 309 324 322 321 331 340 348 343 328 342 355 341 356 92 112 134 109 90 107 85 71 65 33 82 107 103 99
357 2 7 9 10 9 8 7 6 4 3 2 2 3 2 1 358 353 345 337 337 337 333 326 319 306 291 277 265 254 246 247 248 251 253 252 251 246 244 246 246 245 244 238 225 222 226 225 226 230 233 236 237 241 246 247 249 256 259 269 284 297 310 313 318 332 336 337 336 330 300 257 342 5 53 98 145 143 103 109 89 78 82 60 43 99 93 85
351 356 -0 3 4 5 4 3 2 1 -0 359 359 359 359 358 356 353 347 339 334 336 336 331 325 318 305 286 273 261 252 248 247 250 250 247 249 246 245 248 249 248 246 242 231 226 227 224 223 227 231 235 237 239 245 247 247 250 252 259 272 281 293 297 306 324 335 340 327 328 327 252 246 10 23 81 170 169 117 98 83 82 87 101 170 94 84 79
347 352 355 358 360 360 359 359 359 358 357 356 355 355 355 354 353 351 348 342 334 333 336 333 327 322 314 301 285 269 257 250 245 248 250 246 244 244 243 246 249 250 248 245 237 234 234 228 224 227 231 234 236 237 242 246 246 248 249 252 264 274 282 284 288 297 310 333 327 328 345 290 260 329 320 130 184 190 153 126 80 85 76 132 133 86 79 81
347 350 352 354 355 355 355 355 356 355 354 353 352 352 351 351 351 348 346 343 338 332 332 333 330 325 319 311 296 278 264 254 249 250 251 247 243 242 241 242 244 246 247 246 241 240 243 239 230 229 231 233 236 237 239 245 249 251 252 254 261 269 275 278 280 284 292 313 321 321 334 306 267 289 304 288 203 198 180 182 146 110 345 61 99 88 91 112
346 347 348 350 351 352 353 353 353 351 350 350 349 348 347 347 347 345 344 343 340 333 329 329 330 328 322 314 303 285 271 260 255 253 253 250 242 238 239 241 241 242 244 244 244 243 247 248 242 236 234 234 236 237 237 242 250 253 254 255 258 264 269 272 275 281 288 298 306 309 318 309 252 259 306 301 241 206 186 187 161 133 238 59 89 104 136 164
341 342 344 346 347 349 350 350 350 348 347 347 346 346 344 344 343 342 341 341 339 335 330 328 328 328 321 313 304 292 278 266 261 255 250 249 244 237 235 238 238 237 236 238 242 244 247 251 248 242 239 239 240 238 237 240 246 250 252 254 257 261 265 269 273 279 286 290 292 293 304 309 252 252 279 299 270 222 195 188 171 149 174 95 87 127 158 160
335 337 339 341 343 346 347 347 347 346 345 345 344 343 341 341 340 338 338 338 337 333 330 327 324 323 320 313 301 291 279 270 267 259 252 250 248 240 235 236 237 237 236 236 241 245 248 251 251 246 240 242 245 243 240 240 244 247 250 253 256 259 263 266 270 275 280 283 283 285 295 296 260 249 254 272 261 235 215 193 175 157 146 100 90 138 160 151
329 331 333 336 339 342 345 345 344 344 343 343 342 341 340 339 337 336 334 335 333 331 330 328 324 322 321 317 304 293 283 276 272 264 255 251 250 246 242 239 239 240 239 237 239 243 247 250 252 248 241 243 248 247 242 240 242 245 249 252 254 257 260 263 267 271 273 274 277 280 283 275 247 217 228 252 245 233 223 197 177 163 145 105 98 127 155 146
323 325 329 331 334 338 341 342 342 342 342 341 340 339 339 337 335 335 333 332 330 328 329 328 327 324 319 316 308 297 285 276 271 266 258 250 248 250 248 243 239 238 238 236 236 238 241 246 250 250 249 247 245 243 240 239 241 243 247 251 253 256 259 261 263 264 265 266 271 274 273 270 245 209 213 233 230 217 208 196 184 173 166 129 116 125 152 144
316 319 323 325 329 333 335 337 337 339 340 339 339 338 337 336 334 334 332 330 328 325 326 328 328 323 316 314 311 304 289 276 271 268 264 255 250 249 247 245 241 237 235 233 234 236 238 242 248 253 252 246 241 242 241 239 241 242 244 249 252 256 259 260 257 255 259 261 266 272 274 270 248 220 215 217 207 200 197 196 191 183 192 173 135 131 159 146
310 313 317 319 322 326 329 331 332 335 337 337 337 335 335 334 333 333 332 330 328 324 322 324 327 324 318 315 313 310 298 281 273 273 271 261 248 243 240 241 241 238 235 233 233 237 238 241 248 249 245 242 240 243 244 240 242 244 243 246 250 254 257 257 250 247 255 263 266 269 276 273 247 221 217 224 208 195 197 198 196 190 198 203 159 134 168 157
305 308 311 313 316 318 322 324 326 330 333 334 333 332 332 333 332 332 331 329 328 325 322 323 326 326 321 317 311 310 304 289 273 266 263 255 242 235 232 235 240 241 240 237 233 235 234 232 233 234 237 240 241 246 248 243 243 246 245 243 246 252 254 252 246 241 249 262 268 266 277 285 244 217 217 230 213 200 201 200 199 196 200 208 186 151 172 184
301 303 305 308 309 311 315 317 320 324 328 330 329 328 331 332 332 332 331 329 328 324 322 322 323 321 317 315 309 303 303 297 281 263 254 247 235 224 222 227 234 234 229 227 230 232 225 218 223 230 235 239 240 243 245 243 243 245 243 241 244 251 253 248 243 238 243 255 264 265 272 289 236 213 212 225 213 203 202 203 201 198 201 208 200 180 181 197
297 299 300 302 303 306 308 312 315 318 322 325 323 324 328 329 330 332 330 329 326 322 320 320 318 315 312 310 303 296 292 285 275 262 253 245 233 221 218 220 224 222 215 215 221 217 215 219 224 230 235 239 240 243 245 245 244 243 241 240 245 253 253 245 240 236 239 248 255 261 266 281 233 207 204 215 208 205 207 209 208 203 202 201 201 200 194 200
293 295 296 297 298 301 303 306 310 313 317 318 316 319 323 324 328 330 329 328 324 320 319 319 315 310 307 305 298 291 280 270 263 253 243 239 230 218 215 219 222 219 210 211 213 210 217 225 229 232 236 240 242 245 247 248 248 249 247 245 249 256 254 247 240 234 235 245 251 257 264 274 235 207 208 211 203 208 215 214 215 214 208 199 203 208 199 196
290 291 292 294 294 296 299 302 306 308 310 311 311 315 318 319 324 325 326 326 323 320 318 317 313 307 305 302 297 287 274 265 257 244 233 229 224 216 217 221 219 210 193 189 208 217 227 235 235 237 240 242 243 245 249 252 254 257 256 251 250 253 253 249 242 234 233 243 251 256 263 266 244 216 213 212 206 208 214 214 215 221 219 207 210 217 208 199
287 288 289 290 291 293 294 297 302 303 303 306 307 309 311 315 319 320 323 324 321 318 317 314 308 304 302 301 295 283 272 265 253 238 227 218 214 216 216 216 211 201 186 181 207 221 231 239 240 243 245 244 244 244 248 253 255 256 255 251 248 249 252 250 246 237 231 240 251 258 262 260 247 227 221 223 221 216 214 216 214 222 227 216 213 219 217 208
283 285 286 287 288 289 291 293 297 296 297 301 303 304 306 309 313 314 318 319 317 314 312 306 301 299 299 297 287 274 264 259 250 240 230 213 208 215 214 213 209 201 188 180 201 218 228 237 240 247 249 246 245 245 247 252 255 255 252 249 247 248 251 251 247 239 232 239 253 259 261 259 248 236 228 226 227 223 221 224 222 225 231 223 214 216 221 220
280 280 282 284 285 285 287 289 291 290 291 295 297 298 300 303 306 308 311 312 309 309 305 299 295 292 288 283 272 259 252 250 243 236 230 213 204 208 211 213 207 199 191 182 192 211 226 236 237 245 253 251 250 251 251 250 251 252 251 249 247 246 247 249 249 242 233 240 251 255 257 257 251 244 235 220 216 218 218 226 227 226 231 228 217 212 218 224
280 279 279 280 281 282 282 284 285 284 286 290 291 293 295 297 300 303 305 303 299 300 298 293 290 286 283 281 272 262 252 242 230 223 227 221 210 206 207 209 202 195 194 186 189 204 219 227 228 234 244 249 248 248 249 248 246 243 244 246 246 246 246 249 253 249 242 246 251 251 252 252 252 251 244 227 219 218 217 226 228 226 229 230 223 216 216 222
280 279 278 277 278 279 279 280 281 279 281 284 285 288 290 292 295 297 297 295 292 290 290 288 283 280 280 281 279 273 263 247 225 210 215 217 208 202 201 201 197 194 192 188 192 203 214 221 224 231 237 243 244 245 249 251 248 241 240 242 245 249 250 252 260 260 253 252 251 249 248 248 246 247 245 234 228 226 226 228 227 225 225 222 221 220 216 218
279 279 277 275 275 276 276 277 277 275 277 280 281 283 284 287 291 292 290 288 285 282 285 288 286 283 281 277 271 262 249 232 215 205 210 212 202 195 195 191 190 191 189 191 198 202 207 214 219 227 233 237 240 244 249 254 256 254 252 252 252 254 253 254 263 265 257 250 248 247 245 244 243 241 240 236 233 232 232 231 224 218 217 216 218 220 217 216
277 277 276 275 274 274 275 275 273 272 273 275 276 277 279 284 289 287 284 282 279 278 284 287 286 288 283 269 255 237 209 196 201 203 209 213 205 198 196 192 191 193 191 196 202 198 199 206 212 221 229 234 238 242 249 257 260 260 259 259 261 263 262 259 261 265 261 251 248 246 242 242 244 243 241 240 239 238 237 235 226 213 211 216 220 224 223 219
276 275 275 276 275 274 274 273 271 270 270 271 272 273 276 282 284 280 278 278 277 278 281 277 273 277 270 249 237 224 199 185 190 196 200 206 204 198 196 195 198 199 200 205 207 201 201 206 212 223 233 234 232 232 236 246 252 253 252 252 256 262 262 258 259 263 262 253 248 246 242 240 244 245 244 243 244 245 243 239 233 224 218 219 222 225 229 227
275 275 275 275 275 274 273 271 270 269 268 268 268 269 275 279 277 274 273 274 277 277 274 266 261 265 254 231 221 216 206 195 192 193 195 198 200 198 196 199 205 206 206 210 213 210 209 210 216 229 237 234 230 233 239 247 255 256 254 250 250 254 253 251 258 264 264 256 250 247 243 240 242 244 244 244 245 247 248 245 241 235 229 225 223 222 225 226
274 275 275 274 273 273 271 270 269 268 266 265 265 267 271 272 270 270 270 271 273 272 267 256 250 251 243 229 220 218 216 208 203 202 199 200 203 206 205 208 214 215 214 215 216 217 216 215 219 222 227 235 239 245 253 259 262 262 262 255 245 243 244 247 258 267 268 263 257 253 247 243 242 243 244 244 245 248 250 250 249 245 240 234 230 228 227 224
275 275 276 275 273 272 271 270 268 267 265 263 264 265 266 265 266 267 267 268 268 266 259 246 242 243 241 237 230 223 217 213 212 211 209 209 210 214 217 220 222 219 220 222 220 224 227 228 228 221 222 237 250 258 266 270 267 265 264 256 248 249 251 254 261 268 269 266 263 257 249 244 243 245 247 247 248 251 253 254 254 252 249 244 239 236 235 228
276 277 277 276 273 272 272 271 268 266 263 262 262 262 261 261 263 263 263 264 263 261 254 241 238 240 240 239 235 226 216 209 212 211 211 214 212 213 224 230 230 222 218 219 218 227 236 234 235 234 232 243 256 263 268 272 272 270 264 259 259 262 264 264 266 271 273 273 270 262 254 248 245 246 250 252 252 255 259 260 259 257 253 250 248 244 242 238
276 277 277 276 275 275 274 272 268 265 263 261 259 257 256 256 258 259 259 257 256 255 251 242 238 240 244 246 242 235 222 211 212 215 214 212 205 209 218 222 226 222 212 211 216 228 236 231 234 247 249 251 258 263 265 269 274 278 278 275 272 271 273 273 273 274 275 276 276 273 266 260 254 250 250 254 254 255 261 265 265 264 259 253 252 249 248 248
278 277 277 277 278 278 277 273 268 265 263 261 257 253 251 250 252 254 254 252 252 252 249 244 242 241 244 249 246 241 231 216 214 218 219 215 208 208 210 205 208 210 206 210 218 226 237 240 242 254 258 258 260 263 264 267 271 277 279 279 277 274 274 276 277 277 275 274 276 278 277 272 267 258 252 254 255 254 257 263 265 266 263 256 252 250 249 249
279 278 278 279 279 278 277 274 269 264 262 260 255 251 248 245 247 250 252 252 252 251 248 245 244 241 240 242 240 238 233 221 215 218 220 222 222 219 214 205 200 206 214 220 223 227 238 250 254 257 261 260 256 257 261 265 270 274 277 278 280 278 274 274 277 277 274 272 272 275 277 278 277 270 262 259 256 252 251 255 260 262 261 256 250 248 246 242
278 278 278 279 278 277 275 272 267 262 258 254 251 248 246 244 244 249 253 254 253 251 247 243 242 241 240 240 236 233 232 225 220 221 222 227 231 226 220 219 218 222 230 234 238 240 246 256 264 266 263 258 253 254 258 262 267 271 275 278 280 282 282 281 280 276 273 271 270 271 273 277 280 279 275 271 267 258 248 247 252 256 256 253 247 244 241 236
277 278 278 278 277 275 272 268 263 258 254 251 248 247 247 244 243 245 249 251 250 248 245 241 240 241 241 241 237 231 230 230 226 225 226 229 230 225 222 227 231 233 238 243 249 255 260 264 267 266 265 261 256 254 256 260 265 268 271 274 277 279 281 282 282 279 274 270 269 270 271 274 279 279 278 276 273 265 252 243 244 250 254 253 248 242 238 234
277 277 278 277 276 273 269 266 261 256 252 250 247 245 244 242 240 240 243 246 246 244 242 240 239 240 241 242 239 230 228 231 230 227 227 228 228 226 226 231 234 238 243 247 252 258 261 262 262 262 265 268 268 265 264 265 268 269 271 272 275 276 276 276 277 275 272 270 268 270 272 277 281 281 279 277 272 265 255 244 239 241 249 254 252 245 239 235
278 278 277 275 273 270 268 265 261 255 251 249 246 242 239 237 236 237 240 242 242 240 239 238 238 240 242 244 242 234 229 230 231 229 228 229 230 231 232 235 239 242 247 251 255 258 260 261 264 268 272 276 278 275 272 270 268 267 269 271 274 275 274 271 270 267 267 267 267 270 274 277 280 282 281 276 269 261 253 244 237 234 239 248 253 250 245 240
279 278 276 273 270 268 267 265 262 257 252 248 245 241 238 234 231 233 236 238 239 238 236 236 237 239 242 244 241 236 232 232 232 232 230 231 233 235 237 240 242 245 249 253 259 266 269 270 273 279 284 287 288 283 278 273 268 264 264 267 271 273 271 267 265 264 263 263 264 268 272 273 275 278 278 274 266 256 248 242 238 234 233 240 251 254 251 246
277 276 275 273 269 266 265 264 261 258 253 248 244 241 239 234 228 227 229 233 237 238 237 238 239 239 241 242 241 238 235 234 234 233 232 232 233 234 237 241 244 248 252 256 263 269 271 273 278 283 287 293 297 295 288 282 275 267 263 264 269 271 267 264 263 264 264 263 265 267 269 271 273 275 274 269 259 251 244 241 240 235 231 234 244 254 255 251
275 275 275 274 271 267 264 262 260 258 254 250 245 243 241 235 228 224 224 228 233 235 235 238 240 241 241 243 242 239 236 235 235 233 232 235 235 235 236 239 244 250 254 259 264 267 270 274 279 282 284 287 293 297 295 288 280 271 265 265 267 267 264 263 264 264 264 265 266 266 266 270 274 276 273 265 254 245 238 238 240 237 232 232 238 247 253 252
273 274 274 275 273 269 265 262 260 258 255 251 248 245 242 236 228 223 222 226 230 231 232 235 238 241 242 241 240 237 235 233 232 231 231 235 238 238 238 240 245 250 255 259 262 266 270 274 278 282 283 283 287 296 298 290 280 271 267 267 267 267 266 263 261 262 263 264 265 266 268 272 277 279 277 267 252 240 231 229 234 236 233 234 238 242 249 252
273 273 273 274 274 272 268 263 258 257 256 253 250 247 244 238 229 223 222 224 228 230 229 231 235 238 239 239 237 235 236 237 235 232 230 232 237 241 242 244 247 251 255 258 261 266 269 273 277 280 281 280 286 296 299 293 282 272 266 265 266 268 269 265 260 258 260 263 265 266 269 272 276 280 283 275 255 240 231 225 226 230 230 232 236 242 250 254
274 273 273 273 273 272 270 265 259 255 254 253 251 248 244 238 231 225 222 222 226 228 227 229 232 234 236 237 235 233 236 240 240 236 233 232 235 239 243 246 248 251 254 257 261 265 268 272 275 277 279 281 287 296 299 295 288 279 269 264 264 265 266 265 261 259 260 263 265 267 268 271 275 278 281 279 260 242 235 229 226 227 228 228 231 238 247 252
276 275 274 273 272 271 270 267 261 256 253 251 250 247 243 238 232 227 222 221 224 225 225 226 229 230 232 234 234 234 236 239 240 239 237 235 236 239 242 246 249 251 253 256 260 264 268 272 274 277 281 284 289 295 295 291 291 288 280 273 269 265 263 262 262 262 263 265 266 266 267 269 272 274 275 276 264 245 238 235 233 231 230 230 232 236 241 245
Height
5889 5888 5887 5887 5886 5885 5884 5883 5883 5882 5881 5881 5880 5880 5880 5879 5879 5879 5878 5878 5878 5878 5878 5878 5878 5878 5878 5879 5879 5879 5880 5880 5881 5881 5882 5883 5884 5884 5885 5886 5886 5887 5887 5887 5888 5889 5889 5890 5890 5890 5890 5890 5890 5890 5890 5890 5890 5890 5890 5889 5889 5889 5890 5890 5891 5891 5891 5891 5891 5890 5890 5889 5889 5890 5889 5889 5888 5888 5888 5888 5887 5887 5887 5887 5887 5886 5887 5886
5890 5889 5888 5887 5887 5886 5885 5884 5883 5882 5881 5880 5880 5880 5879 5879 5879 5878 5878 5878 5878 5878 5877 5878 5878 5878 5878 5878 5878 5878 5879 5879 5880 5880 5881 5882 5883 5883 5884 5885 5885 5886 5887 5887 5887 5888 5889 5890 5890 5891 5891 5891 5891 5890 5890 5891 5891 5891 5891 5890 5890 5890 5890 5890 5891 5891 5891 5891 5891 5891 5890 5890 5890 5890 5890 5889 5889 5888 5888 5888 5888 5887 5888 5888 5887 5887 5887 5887
5891 5890 5889 5888 5887 5886 5885 5884 5883 5882 5881 5880 5880 5879 5879 5879 5878 5878 5878 5877 5877 5877 5877 5877 5877 5877 5877 5877 5877 5878 5878 5879 5879 5880 5880 5881 5882 5883 5883 5884 5885 5886 5886 5886 5887 5888 5889 5890 5890 5891 5891 5891 5891 5891 5891 5891 5891 5892 5891 5891 5891 5891 5891 5891 5892 5892 5892 5892 5892 5892 5891 5891 5891 5891 5891 5890 5889 5889 5889 5889 5888 5888 5888 5888 5888 5887 5887 5887
5891 5890 5889 5889 5888 5887 5886 5885 5884 5883 5881 5880 5880 5879 5878 5878 5878 5878 5877 5877 5876 5876 5876 5876 5876 5876 5876 5876 5877 5877 5878 5878 5879 5879 5879 5880 5881 5882 5883 5884 5885 5885 5885 5886 5886 5887 5888 5890 5890 5891 5891 5891 5892 5891 5892 5892 5892 5892 5892 5892 5892 5892 5892 5892 5892 5892 5893 5893 5893 5893 5892 5893 5892 5892 5891 5890 5889 5889 5889 5889 5889 5889 5889 5889 5889 5888 5888 5888
5892 5891 5890 5889 5888 5887 5886 5885 5884 5883 5882 5881 5880 5879 5878 5878 5877 5877 5877 5876 5876 5875 5875 5875 5875 5875 5875 5876 5876 5877 5877 5877 5878 5878 5879 5879 5880 5881 5882 5883 5884 5885 5885 5885 5886 5887 5888 5889 5890 5890 5890 5891 5891 5891 5892 5892 5893 5893 5893 5893 5892 5892 5892 5892 5892 5892 5893 5893 5893 5893 5893 5893 5892 5892 5891 5891 5890 5890 5890 5890 5890 5890 5890 5890 5889 5889 5888 5888
5892 5891 5891 5890 5889 5888 5887 5886 5885 5884 5882 5881 5880 5879 5878 5877 5877 5877 5876 5876 5876 5875 5875 5874 5875 5875 5875 5875 5875 5876 5876 5876 5877 5877 5878 5878 5879 5879 5880 5881 5882 5884 5884 5884 5885 5886 5888 5889 5889 5889 5890 5890 5891 5891 5891 5892 5893 5894 5894 5893 5892 5892 5892 5892 5892 5892 5892 5893 5893 5893 5893 5893 5892 5892 5892 5891 5891 5891 5891 5891 5891 5891 5891 5890 5889 5889 5889 5889
5893 5892 5891 5890 5889 5888 5887 5886 5885 5884 5883 5882 5880 5879 5878 5877 5877 5876 5876 5876 5875 5875 5874 5874 5874 5874 5874 5874 5875 5875 5875 5875 5876 5876 5877 5877 5878 5878 5879 5880 5881 5882 5883 5884 5884 5886 5887 5888 5888 5889 5889 5890 5890 5890 5891 5891 5893 5894 5894 5893 5892 5891 5892 5892 5892 5892 5892 5892 5893 5893 5893 5892 5892 5892 5892 5892 5891 5891 5891 5892 5892 5892 5891 5891 5890 5890 5890 5889
5893 5892 5891 5890 5889 5888 5887 5886 5885 5884 5883 5882 5881 5879 5878 5878 5877 5876 5876 5875 5875 5874 5874 5873 5873 5873 5873 5873 5874 5874 5874 5874 5874 5875 5875 5876 5877 5878 5878 5879 5880 5881 5882 5883 5884 5885 5886 5887 5888 5888 5889 5889 5890 5890 5890 5891 5892 5893 5894 5893 5892 5892 5892 5892 5892 5892 5893 5893 5893 5893 5893 5892 5892 5892 5893 5892 5891 5892 5892 5893 5893 5892 5892 5892 5891 5891 5890 5890
5893 5892 5891 5890 5889 5889 5888 5886 5885 5884 5883 5882 5881 5880 5879 5878 5877 5876 5876 5875 5875 5874 5873 5873 5872 5872 5872 5873 5873 5873 5873 5874 5874 5874 5874 5875 5876 5877 5877 5878 5879 5880 5881 5882 5884 5885 5885 5886 5887 5887 5888 5888 5889 5890 5890 5891 5891 5892 5893 5892 5892 5892 5892 5892 5892 5892 5892 5892 5892 5893 5893 5893 5892 5892 5893 5893 5892 5893 5893 5893 5893 5892 5892 5892 5892 5891 5890 5890
5893 5892 5891 5890 5890 5889 5888 5887 5886 5884 5883 5882 5881 5880 5879 5878 5877 5876 5875 5875 5874 5874 5873 5872 5872 5872 5871 5872 5872 5872 5872 5872 5872 5873 5874 5875 5875 5876 5877 5877 5878 5878 5880 5881 5883 5884 5884 5885 5886 5886 5887 5887 5888 5889 5890 5890 5891 5891 5892 5892 5891 5892 5892 5892 5891 5891 5891 5892 5892 5892 5893 5893 5892 5891 5892 5893 5893 5894 5894 5894 5893 5893 5892 5892 5893 5892 5891 5891
5893 5892 5891 5890 5890 5889 5888 5887 5886 5884 5883 5882 5881 5880 5879 5878 5877 5876 5875 5874 5874 5873 5872 5872 5871 5871 5871 5871 5871 5871 5871 5871 5872 5872 5873 5874 5874 5875 5876 5876 5877 5877 5878 5880 5882 5883 5882 5884 5885 5885 5886 5886 5888 5889 5889 5889 5890 5891 5891 5891 5890 5891 5892 5892 5891 5891 5891 5891 5891 5892 5893 5893 5893 5891 5892 5893 5893 5894 5894 5894 5893 5893 5893 5893 5893 5892 5891 5891
5893 5892 5891 5890 5889 5888 5888 5887 5886 5885 5883 5882 5881 5880 5879 5878 5876 5875 5875 5874 5873 5873 5872 5871 5871 5870 5870 5870 5870 5870 5870 5870 5871 5871 5871 5873 5873 5874 5875 5875 5876 5876 5877 5879 5880 5881 5881 5882 5884 5884 5885 5886 5887 5888 5888 5889 5889 5890 5890 5890 5890 5890 5891 5891 5891 5891 5891 5891 5891 5891 5891 5892 5892 5891 5891 5893 5893 5894 5894 5894 5893 5894 5894 5893 5893 5892 5891 5891
5892 5892 5891 5890 5889 5888 5887 5887 5886 5884 5883 5882 5881 5880 5879 5877 5876 5875 5874 5873 5873 5872 5871 5871 5870 5870 5869 5869 5869 5869 5869 5870 5870 5870 5870 5871 5872 5873 5874 5874 5875 5875 5876 5877 5879 5879 5879 5881 5882 5883 5884 5885 5887 5887 5887 5888 5888 5889 5890 5890 5889 5889 5890 5890 5891 5891 5891 5890 5890 5890 5890 5890 5891 5891 5891 5892 5893 5894 5894 5894 5894 5894 5894 5894 5893 5892 5891 5892
5892 5891 5891 5890 5889 5888 5887 5886 5885 5884 5883 5882 5881 5880 5878 5877 5876 5875 5874 5873 5872 5871 5871 5870 5870 5869 5869 5868 5868 5868 5868 5869 5869 5869 5869 5870 5871 5872 5872 5873 5874 5874 5875 5876 5877 5878 5878 5879 5881 5882 5883 5885 5885 5886 5887 5887 5888 5888 5889 5889 5889 5889 5889 5889 5890 5890 5890 5890 5890 5890 5890 5890 5890 5891 5891 5892 5893 5894 5894 5895 5894 5894 5895 5894 5893 5892 5893 5893
5892 5891 5891 5890 5889 5888 5887 5886 5885 5884 5883 5882 5880 5879 5878 5877 5876 5874 5873 5873 5872 5871 5870 5870 5869 5869 5868 5868 5868 5868 5868 5868 5867 5868 5868 5869 5870 5870 5871 5871 5872 5873 5874 5875 5875 5876 5877 5877 5880 5881 5883 5884 5884 5885 5886 5886 5887 5887 5888 5888 5888 5888 5887 5888 5889 5889 5889 5889 5889 5889 5889 5889 5889 5890 5891 5892 5893 5894 5895 5895 5895 5895 5895 5894 5893 5893 5894 5894
5892 5891 5890 5889 5889 5888 5887 5886 5885 5883 5882 5881 5880 5879 5878 5877 5875 5874 5873 5872 5871 5870 5870 5869 5868 5868 5867 5867 5867 5867 5867 5866 5866 5867 5867 5867 5868 5869 5869 5870 5871 5872 5873 5873 5874 5875 5875 5876 5878 5880 5882 5883 5883 5884 5885 5885 5885 5886 5887 5887 5887 5887 5886 5887 5888 5888 5888 5888 5888 5888 5888 5889 5889 5889 5890 5891 5892 5893 5894 5895 5895 5895 5896 5895 5894 5894 5895 5895
5891 5891 5890 5889 5888 5887 5886 5885 5884 5883 5882 5881 5880 5879 5877 5876 5875 5874 5872 5871 5870 5870 5869 5868 5867 5867 5867 5866 5866 5866 5866 5866 5866 5866 5866 5866 5866 5867 5868 5868 5869 5870 5871 5872 5873 5874 5874 5875 5876 5879 5881 5882 5883 5883 5884 5884 5884 5884 5885 5886 5886 5886 5885 5886 5887 5887 5887 5887 5887 5887 5888 5888 5888 5889 5890 5890 5891 5892 5894 5895 5895 5895 5896 5895 5894 5894 5895 5894
5891 5890 5889 5889 5888 5887 5886 5885 5884 5883 5882 5881 5879 5878 5877 5876 5874 5873 5872 5871 5870 5869 5868 5868 5867 5866 5866 5866 5865 5865 5865 5865 5865 5865 5865 5865 5865 5866 5866 5867 5868 5869 5870 5871 5872 5873 5873 5874 5875 5877 5880 5881 5882 5882 5882 5882 5882 5883 5884 5884 5884 5884 5884 5885 5885 5885 5886 5886 5886 5886 5887 5887 5888 5889 5889 5889 5890 5892 5893 5894 5895 5895 5895 5895 5894 5894 5895 5894
5890 5889 5889 5888 5887 5886 5885 5884 5883 5882 5881 5880 5879 5878 5876 5875 5874 5873 5871 5870 5869 5868 5867 5867 5866 5865 5865 5865 5865 5865 5864 5864 5864 5864 5865 5864 5864 5864 5865 5866 5867 5868 5869 5870 5871 5871 5872 5872 5873 5876 5879 5880 5880 5880 5880 5880 5881 5882 5882 5882 5883 5883 5883 5883 5884 5884 5884 5885 5885 5886 5886 5886 5887 5888 5888 5889 5889 5891 5892 5894 5894 5895 5895 5895 5894 5895 5895 5895
5890 5889 5888 5887 5886 5886 5885 5884 5883 5882 5881 5880 5878 5877 5875 5874 5873 5872 5871 5870 5868 5867 5867 5866 5865 5865 5865 5864 5864 5864 5864 5863 5864 5864 5864 5864 5863 5863 5864 5865 5865 5866 5867 5868 5868 5869 5870 5871 5873 5876 5878 5877 5877 5877 5878 5879 5880 5880 5881 5881 5882 5881 5882 5882 5883 5883 5883 5883 5884 5885 5885 5885 5886 5886 5887 5888 5889 5890 5892 5893 5894 5894 5895 5895 5895 5894 5894 5895
5889 5888 5887 5886 5886 5885 5884 5883 5882 5881 5880 5879 5877 5876 5875 5873 5872 5871 5870 5869 5868 5867 5866 5865 5864 5864 5864 5864 5864 5863 5863 5863 5862 5863 5863 5863 5863 5863 5863 5863 5864 5865 5866 5866 5867 5868 5869 5871 5873 5875 5874 5873 5874 5875 5876 5878 5879 5879 5880 5880 5880 5880 5880 5881 5882 5882 5882 5882 5883 5884 5884 5884 5884 5885 5887 5887 5888 5890 5891 5892 5893 5894 5895 5895 5895 5894 5894 5895
5888 5887 5886 5885 5885 5884 5883 5882 5881 5880 5879 5878 5877 5875 5874 5873 5872 5870 5869 5868 5867 5866 5865 5864 5863 5863 5863 5863 5863 5862 5862 5862 5862 5862 5862 5862 5862 5862 5862 5863 5863 5864 5864 5865 5866 5867 5868 5871 5872 5871 5869 5870 5872 5873 5874 5876 5877 5878 5878 5879 5879 5879 5879 5880 5880 5881 5881 5881 5882 5883 5883 5883 5883 5884 5886 5887 5888 5889 5890 5891 5892 5893 5894 5894 5894 5894 5894 5895
5886 5886 5885 5884 5883 5882 5882 5881 5880 5879 5878 5877 5875 5874 5873 5872 5871 5869 5868 5867 5866 5865 5864 5863 5862 5862 5862 5862 5862 5861 5861 5861 5861 5861 5861 5862 5862 5861 5862 5862 5862 5863 5863 5864 5865 5866 5868 5869 5868 5867 5867 5869 5870 5871 5872 5874 5876 5876 5877 5878 5878 5878 5878 5879 5879 5880 5880 5881 5881 5882 5882 5883 5882 5883 5886 5887 5888 5889 5889 5890 5892 5893 5893 5894 5894 5894 5895 5895
5885 5884 5883 5883 5882 5881 5880 5879 5878 5878 5877 5876 5874 5873 5872 5871 5870 5868 5867 5866 5866 5865 5864 5863 5862 5861 5861 5861 5861 5861 5860 5860 5860 5860 5861 5861 5861 5860 5861 5861 5861 5861 5862 5863 5864 5865 5866 5866 5865 5866 5866 5867 5869 5870 5871 5873 5874 5874 5875 5877 5877 5876 5877 5877 5878 5879 5880 5880 5881 5881 5881 5882 5882 5882 5885 5886 5887 5888 5889 5890 5891 5892 5892 5893 5894 5894 5895 5895
5883 5882 5882 5881 5881 5880 5879 5878 5877 5876 5875 5874 5873 5872 5871 5869 5868 5867 5866 5866 5865 5864 5863 5862 5861 5860 5860 5860 5860 5860 5860 5860 5860 5860 5860 5860 5860 5859 5859 5860 5860 5861 5861 5862 5863 5864 5864 5864 5865 5865 5866 5867 5868 5870 5871 5872 5872 5874 5875 5876 5876 5875 5875 5876 5876 5878 5879 5880 5880 5880 5880 5881 5881 5882 5884 5885 5886 5887 5888 5889 5890 5891 5892 5893 5894 5894 5895 5895
5881 5880 5880 5879 5879 5878 5877 5876 5876 5874 5873 5873 5871 5871 5870 5868 5867 5866 5865 5864 5863 5862 5862 5861 5860 5859 5859 5859 5859 5859 5859 5859 5859 5859 5859 5859 5859 5858 5858 5859 5859 5860 5861 5861 5862 5863 5863 5864 5865 5865 5865 5867 5868 5869 5870 5870 5872 5873 5874 5875 5875 5874 5874 5874 5875 5876 5878 5878 5879 5879 5880 5880 5881 5881 5882 5884 5884 5886 5887 5888 5889 5890 5891 5893 5894 5894 5895 5895
5879 5878 5878 5877 5876 5876 5876 5875 5874 5873 5872 5871 5870 5869 5868 5867 5866 5865 5864 5863 5862 5861 5860 5860 5859 5858 5858 5858 5857 5857 5857 5857 5857 5858 5858 5857 5857 5857 5858 5858 5859 5859 5860 5860 5861 5862 5862 5863 5864 5864 5865 5866 5867 5869 5869 5869 5871 5872 5873 5873 5873 5872 5873 5873 5874 5875 5876 5877 5878 5878 5879 5879 5880 5880 5881 5882 5883 5884 5885 5887 5888 5889 5891 5892 5893 5894 5895 5895
5877 5876 5875 5875 5874 5874 5874 5873 5872 5871 5870 5869 5868 5867 5867 5866 5865 5864 5863 5862 5861 5860 5860 5859 5858 5858 5857 5857 5857 5857 5856 5856 5856 5856 5856 5856 5856 5857 5857 5857 5858 5858 5859 5859 5860 5861 5862 5862 5863 5864 5865 5866 5866 5868 5869 5869 5871 5871 5871 5872 5872 5872 5872 5872 5873 5874 5875 5876 5877 5877 5878 5879 5879 5879 5880 5881 5882 5883 5884 5885 5887 5888 5889 5891 5892 5893 5894 5895
5875 5874 5872 5871 5871 5871 5871 5871 5871 5868 5868 5867 5866 5865 5865 5864 5863 5862 5862 5861 5860 5859 5859 5858 5858 5857 5856 5856 5856 5856 5856 5855 5855 5855 5855 5855 5855 5856 5856 5857 5857 5858 5858 5858 5859 5860 5861 5862 5862 5863 5864 5865 5866 5867 5868 5869 5870 5870 5870 5871 5871 5871 5871 5871 5871 5873 5874 5875 5875 5876 5877 5878 5878 5878 5879 5880 5881 5882 5883 5884 5885 5886 5888 5889 5891 5892 5893 5894
5871 5871 5870 5868 5868 5868 5868 5868 5869 5866 5865 5865 5864 5863 5863 5862 5862 5861 5860 5859 5859 5858 5858 5857 5856 5856 5855 5855 5855 5855 5855 5854 5854 5854 5854 5855 5855 5855 5856 5856 5856 5857 5857 5857 5858 5859 5860 5861 5862 5863 5863 5864 5865 5866 5867 5868 5869 5868 5869 5870 5870 5869 5870 5870 5870 5871 5873 5874 5874 5875 5876 5877 5877 5877 5878 5879 5880 5881 5882 5883 5883 5884 5885 5887 5889 5891 5892 5893
5866 5866 5867 5865 5864 5865 5865 5865 5866 5864 5862 5863 5862 5861 5860 5860 5859 5859 5858 5858 5857 5856 5856 5856 5855 5855 5854 5854 5854 5854 5854 5853 5853 5853 5854 5854 5854 5855 5855 5855 5855 5855 5856 5857 5857 5858 5859 5860 5861 5862 5862 5863 5864 5865 5866 5866 5867 5867 5867 5868 5868 5869 5869 5869 5870 5870 5872 5873 5873 5873 5875 5876 5877 5877 5877 5878 5879 5880 5881 5882 5882 5883 5884 5886 5888 5889 5891 5892
5861 5861 5862 5862 5861 5861 5861 5862 5862 5861 5860 5860 5859 5859 5858 5857 5857 5857 5856 5856 5855 5855 5854 5855 5855 5854 5853 5852 5852 5852 5852 5852 5852 5853 5853 5853 5854 5854 5854 5854 5854 5855 5855 5856 5856 5857 5859 5860 5861 5861 5862 5863 5864 5864 5865 5865 5866 5866 5866 5867 5867 5867 5868 5868 5869 5869 5870 5871 5871 5872 5873 5875 5876 5876 5877 5877 5878 5878 5879 5880 5881 5882 5883 5885 5887 5888 5889 5890
5857 5857 5857 5857 5858 5858 5857 5858 5858 5857 5857 5856 5856 5856 5855 5855 5855 5854 5854 5854 5854 5853 5853 5854 5854 5853 5853 5852 5851 5851 5851 5851 5852 5852 5852 5853 5853 5853 5853 5853 5854 5855 5855 5856 5856 5858 5859 5860 5861 5861 5861 5862 5863 5863 5864 5864 5864 5865 5865 5865 5866 5866 5866 5867 5868 5868 5869 5869 5869 5870 5872 5874 5874 5875 5876 5876 5877 5877 5878 5879 5880 5881 5882 5884 5885 5886 5887 5889
5851 5852 5852 5853 5854 5854 5854 5853 5853 5854 5853 5853 5853 5852 5852 5853 5852 5850 5851 5851 5852 5852 5852 5852 5852 5852 5852 5851 5850 5850 5850 5850 5851 5851 5852 5852 5853 5853 5853 5853 5854 5854 5855 5856 5857 5858 5859 5860 5860 5860 5860 5861 5862 5862 5863 5863 5863 5863 5863 5863 5864 5865 5865 5866 5866 5867 5868 5868 5868 5869 5871 5872 5873 5873 5874 5875 5875 5876 5876 5877 5878 5879 5881 5882 5883 5885 5886 5887
5846 5846 5848 5849 5849 5849 5850 5849 5849 5849 5849 5850 5850 5849 5850 5851 5848 5846 5847 5848 5849 5850 5850 5850 5850 5850 5850 5850 5849 5848 5849 5849 5850 5850 5851 5852 5852 5852 5853 5853 5853 5854 5855 5856 5857 5858 5859 5860 5860 5860 5860 5860 5861 5861 5861 5862 5862 5862 5862 5863 5863 5863 5864 5865 5865 5865 5866 5866 5866 5867 5869 5871 5871 5872 5872 5873 5874 5874 5875 5875 5876 5877 5879 5880 5882 5883 5884 5885
5841 5840 5842 5845 5844 5844 5844 5844 5844 5844 5845 5845 5845 5846 5848 5847 5844 5843 5843 5845 5847 5848 5848 5848 5848 5848 5848 5848 5848 5847 5848 5848 5848 5849 5849 5850 5851 5851 5852 5852 5853 5853 5854 5856 5857 5857 5858 5859 5859 5859 5860 5859 5860 5860 5861 5862 5862 5861 5861 5862 5862 5862 5863 5864 5864 5864 5864 5865 5865 5866 5868 5869 5869 5870 5871 5872 5872 5872 5873 5874 5874 5875 5877 5878 5880 5881 5882 5883
5837 5836 5837 5839 5840 5839 5839 5839 5839 5839 5840 5840 5841 5843 5844 5842 5840 5840 5840 5842 5844 5845 5846 5846 5846 5846 5846 5846 5847 5847 5847 5847 5847 5848 5848 5848 5849 5850 5851 5852 5852 5853 5854 5855 5856 5857 5858 5858 5859 5859 5860 5859 5859 5859 5860 5860 5861 5860 5861 5861 5861 5862 5862 5863 5863 5863 5863 5863 5863 5865 5866 5867 5868 5869 5870 5871 5871 5871 5872 5873 5873 5874 5875 5876 5877 5879 5880 5880
5833 5832 5833 5834 5835 5835 5834 5834 5834 5834 5834 5835 5837 5840 5840 5838 5837 5836 5836 5838 5840 5841 5843 5843 5843 5844 5844 5845 5845 5845 5846 5846 5846 5847 5847 5847 5848 5850 5851 5851 5852 5853 5853 5854 5856 5856 5857 5858 5858 5859 5859 5858 5858 5859 5859 5859 5859 5860 5860 5860 5860 5861 5861 5861 5861 5861 5861 5861 5861 5862 5863 5865 5866 5868 5869 5870 5870 5871 5871 5872 5872 5873 5873 5874 5875 5876 5877 5877
5830 5828 5829 5830 5830 5830 5830 5829 5828 5828 5828 5830 5833 5835 5835 5835 5833 5832 5833 5834 5836 5838 5839 5840 5841 5841 5842 5843 5843 5843 5844 5844 5845 5845 5846 5846 5847 5849 5850 5850 5851 5852 5853 5854 5855 5855 5856 5857 5858 5858 5858 5858 5858 5858 5858 5858 5858 5858 5859 5859 5859 5859 5859 5859 5859 5859 5859 5859 5859 5860 5861 5863 5865 5866 5867 5868 5869 5870 5870 5870 5871 5871 5872 5872 5872 5873 5874 5874
5826 5825 5825 5825 5826 5825 5824 5824 5823 5823 5824 5826 5828 5829 5830 5831 5829 5827 5828 5830 5833 5835 5835 5836 5838 5839 5840 5841 5841 5841 5842 5842 5843 5844 5845 5845 5846 5847 5849 5850 5850 5851 5852 5853 5854 5854 5855 5855 5856 5856 5856 5857 5857 5856 5856 5857 5857 5857 5857 5857 5858 5858 5858 5858 5857 5857 5857 5858 5858 5858 5859 5861 5862 5863 5865 5866 5867 5868 5869 5869 5869 5869 5870 5870 5871 5871 5872 5873
5821 5820 5820 5821 5821 5821 5819 5819 5818 5819 5820 5821 5823 5824 5825 5825 5824 5823 5824 5827 5829 5831 5832 5833 5835 5836 5837 5838 5839 5839 5840 5840 5841 5842 5843 5844 5845 5846 5848 5849 5850 5850 5851 5852 5852 5853 5853 5853 5854 5854 5854 5854 5855 5854 5854 5855 5855 5855 5856 5856 5856 5856 5856 5856 5856 5856 5855 5856 5856 5856 5856 5858 5860 5861 5862 5863 5864 5865 5866 5866 5867 5867 5868 5868 5869 5870 5871 5871
5816 5815 5816 5816 5816 5816 5815 5814 5814 5815 5816 5817 5818 5819 5820 5821 5821 5821 5821 5823 5826 5828 5829 5830 5831 5833 5835 5836 5837 5837 5837 5839 5839 5840 5841 5842 5843 5845 5846 5847 5848 5849 5849 5850 5850 5851 5851 5852 5852 5852 5852 5852 5852 5852 5853 5853 5853 5853 5854 5854 5854 5854 5854 5854 5854 5854 5854 5854 5854 5853 5854 5856 5857 5858 5859 5860 5861 5861 5862 5863 5863 5864 5865 5866 5867 5868 5869 5869
5811 5810 5811 5811 5810 5811 5810 5809 5810 5810 5811 5812 5814 5815 5816 5817 5818 5818 5818 5820 5823 5824 5825 5827 5828 5830 5831 5833 5834 5834 5835 5836 5837 5838 5840 5841 5842 5843 5844 5845 5846 5846 5847 5848 5848 5849 5850 5850 5850 5850 5850 5850 5850 5850 5851 5851 5851 5851 5852 5852 5852 5852 5852 5852 5852 5852 5852 5852 5852 5851 5852 5853 5855 5856 5856 5857 5858 5858 5859 5859 5860 5861 5862 5863 5864 5865 5866 5867
5806 5805 5806 5806 5806 5805 5805 5804 5805 5806 5807 5809 5810 5811 5812 5813 5814 5814 5814 5816 5818 5821 5822 5823 5825 5827 5828 5829 5831 5832 5833 5834 5835 5836 5838 5839 5840 5841 5842 5843 5844 5844 5845 5846 5847 5847 5848 5848 5848 5848 5848 5848 5849 5849 5849 5849 5849 5849 5849 5850 5850 5850 5850 5850 5850 5849 5849 5850 5850 5849 5849 5851 5852 5853 5853 5854 5855 5855 5856 5856 5857 5858 5859 5860 5861 5862 5863 5864
5800 5800 5801 5802 5801 5800 5800 5800 5801 5801 5803 5804 5806 5806 5807 5808 5809 5810 5811 5812 5815 5816 5818 5820 5822 5823 5825 5826 5828 5829 5830 5831 5833 5834 5835 5837 5838 5839 5840 5841 5842 5843 5843 5844 5844 5845 5846 5846 5847 5847 5847 5847 5847 5847 5847 5847 5847 5846 5846 5847 5847 5847 5847 5847 5847 5847 5847 5847 5847 5847 5847 5849 5849 5850 5851 5852 5852 5852 5853 5853 5854 5855 5857 5858 5859 5860 5861 5862
5795 5795 5795 5797 5797 5796 5796 5796 5796 5797 5799 5800 5801 5801 5802 5803 5804 5807 5808 5809 5809 5811 5814 5817 5819 5820 5821 5823 5825 5827 5828 5829 5830 5831 5833 5835 5836 5837 5838 5839 5840 5841 5841 5842 5842 5843 5844 5845 5845 5846 5846 5845 5845 5844 5844 5844 5844 5844 5844 5844 5844 5844 5844 5845 5845 5845 5845 5845 5845 5845 5845 5846 5847 5848 5848 5849 5850 5850 5849 5850 5851 5852 5854 5856 5857 5857 5859 5860
5791 5790 5790 5791 5792 5792 5792 5792 5792 5793 5794 5796 5796 5796 5797 5799 5801 5803 5805 5804 5804 5807 5811 5814 5815 5816 5818 5820 5822 5824 5826 5827 5828 5829 5831 5832 5833 5835 5836 5837 5838 5838 5839 5839 5840 5841 5842 5842 5843 5844 5844 5844 5843 5842 5842 5841 5840 5840 5841 5841 5842 5842 5842 5842 5842 5842 5843 5842 5843 5843 5843 5843 5844 5845 5845 5846 5847 5847 5847 5847 5848 5850 5852 5854 5855 5855 5856 5858
5786 5786 5785 5786 5787 5788 5788 5789 5789 5789 5790 5791 5792 5792 5794 5796 5798 5799 5800 5800 5801 5804 5808 5810 5811 5813 5815 5818 5820 5821 5823 5824 5826 5827 5829 5830 5831 5832 5834 5834 5835 5836 5836 5837 5838 5839 5839 5840 5840 5841 5842 5842 5842 5841 5840 5839 5838 5838 5838 5839 5839 5840 5840 5840 5840 5840 5840 5840 5840 5840 5840 5840 5841 5842 5842 5843 5843 5844 5844 5845 5845 5847 5850 5852 5853 5854 5854 5855
5782 5782 5781 5781 5782 5783 5784 5785 5785 5785 5785 5786 5787 5789 5790 5792 5794 5795 5796 5797 5798 5801 5805 5806 5808 5810 5812 5815 5817 5818 5819 5821 5823 5825 5826 5827 5828 5830 5831 5832 5833 5833 5834 5835 5836 5836 5837 5838 5838 5839 5840 5840 5840 5839 5838 5837 5836 5836 5836 5836 5836 5837 5838 5837 5837 5837 5838 5838 5838 5838 5838 5838 5839 5839 5839 5840 5840 5841 5842 5842 5843 5845 5847 5849 5850 5852 5853 5853
5778 5778 5778 5778 5778 5778 5780 5781 5782 5781 5781 5782 5783 5785 5786 5788 5790 5791 5792 5794 5795 5798 5801 5803 5804 5806 5809 5811 5813 5814 5816 5818 5821 5822 5823 5824 5826 5827 5829 5830 5831 5832 5832 5833 5833 5833 5834 5836 5836 5836 5837 5837 5837 5837 5836 5835 5834 5834 5833 5833 5833 5834 5835 5835 5835 5835 5836 5836 5836 5835 5836 5836 5837 5837 5837 5837 5838 5839 5839 5840 5841 5843 5845 5847 5848 5850 5850 5851
5774 5774 5774 5774 5774 5774 5775 5776 5777 5778 5777 5778 5779 5781 5782 5784 5786 5788 5789 5790 5792 5795 5797 5799 5801 5804 5806 5808 5810 5812 5813 5816 5819 5819 5820 5822 5823 5824 5826 5827 5829 5830 5830 5830 5831 5831 5832 5833 5833 5834 5834 5835 5835 5835 5834 5833 5832 5831 5831 5831 5831 5831 5832 5833 5833 5834 5834 5834 5833 5833 5833 5834 5834 5834 5834 5834 5835 5836 5837 5838 5838 5840 5841 5843 5845 5847 5847 5848
5770 5770 5770 5770 5770 5770 5770 5771 5772 5773 5774 5774 5775 5777 5778 5780 5782 5784 5785 5787 5789 5791 5794 5796 5798 5801 5803 5805 5807 5809 5811 5814 5816 5817 5817 5819 5820 5822 5823 5825 5826 5827 5828 5828 5828 5828 5829 5830 5830 5831 5832 5832 5832 5832 5832 5831 5830 5830 5829 5829 5829 5830 5830 5830 5831 5832 5832 5831 5831 5831 5831 5831 5831 5832 5832 5832 5833 5834 5835 5836 5837 5837 5838 5840 5842 5844 5844 5845